Home > Weather > Aktau > Past weeks

Flag for Kazakhstan Past Weather in Aktau, Kazakhstan — Yesterday and Last 2 Weeks

Now
75 °F

Scattered clouds.


Feels Like: 78 °F
Forecast: 61 / 81 °F
Wind: 8 mph from Southwest

Location: Aktau

Current Time: May 26, 2016 at 11:56:39 AM

Latest Report: May 26, 2016 at 11:30 AM


Visibility: N/A

Pressure: 29.77 "Hg

Humidity: 47%

Dew Point: 54 °F

Location of AktauLocation

Past Weather in Aktau — Graph

°F

Aktau Temperature Yesterday

Maximum temperature yesterday: 79 °F (at 11:00 AM)
Minimum temperature yesterday: 64 °F (at 9:00 PM)
Average temperature yesterday: 70 °F

High & Low Weather Summary for the Past Weeks

 TemperatureHumidityPressure
High88 °F (May 24, 12:30 PM)94% (May 13, 8:30 AM)30.09 "Hg (May 13, 8:30 AM)
Low52 °F (May 18, 4:30 AM)16% (May 23, 1:00 PM)29.65 "Hg (May 25, 7:30 AM)
Average68 °F60%29.87 "Hg
* Reported May 11 10:00 AM — May 26 10:30 AM, Aktau, Weather by CustomWeather, © 2016

Note: Actual official high and low records may vary slightly from our data, if they occured in-between our weather recording intervals... More about our weather records

Advertising

Aktau Weather History for the Previous 24 Hours

Scroll right to see more
 ConditionsComfort  
Time TempWeatherWind HumidityBarometerVisibility
10:30 AM
Thu, May 26
73 °FScattered clouds.6 mph57%29.77 "HgN/A
10:00 AM72 °FScattered clouds.6 mph65%29.77 "HgN/A
9:30 AM72 °FScattered clouds.6 mph65%29.77 "HgN/A
9:00 AM70 °FFog.No wind69%29.77 "HgN/A
8:30 AM66 °FFog.1 mph78%29.77 "HgN/A
8:00 AM64 °FFog.1 mph83%29.77 "HgN/A
7:30 AM63 °FFog.3 mph88%29.77 "Hg3 mi
7:00 AM63 °FFog.3 mph88%29.77 "Hg1 mi
6:30 AM63 °FPassing clouds.1 mph88%29.77 "HgN/A
6:00 AM63 °FClear.6 mph88%29.74 "Hg10 mi
5:30 AM64 °FPassing clouds.6 mph83%29.74 "HgN/A
5:00 AM63 °FPassing clouds.3 mph88%29.74 "HgN/A
4:30 AM63 °FPassing clouds.1 mph88%29.74 "HgN/A
4:00 AM63 °FPassing clouds.1 mph88%29.74 "HgN/A
3:30 AM63 °FClear.1 mph88%29.74 "Hg10 mi
3:00 AM63 °FClear.6 mph88%29.74 "Hg10 mi
2:30 AM63 °FClear.6 mph88%29.74 "Hg10 mi
2:00 AM63 °FPartly cloudy.6 mph88%29.74 "HgN/A
1:30 AM63 °FPartly cloudy.8 mph88%29.74 "HgN/A
1:00 AM63 °FPartly cloudy.8 mph88%29.74 "HgN/A
12:30 AM64 °FPassing clouds.6 mph83%29.74 "HgN/A
12:00 AM64 °FClear.6 mph83%29.74 "Hg10 mi
11:30 PM
Wed, May 25
64 °FClear.6 mph83%29.74 "Hg10 mi
11:00 PM64 °FSunny.6 mph83%29.74 "Hg10 mi
10:30 PM64 °FBroken clouds.8 mph83%29.74 "HgN/A
10:00 PM64 °FBroken clouds.6 mph83%29.74 "HgN/A
9:30 PM64 °FPassing clouds.8 mph83%29.74 "HgN/A
9:00 PM64 °FPassing clouds.8 mph83%29.74 "HgN/A
8:30 PM66 °FPassing clouds.10 mph78%29.74 "HgN/A
8:00 PM66 °FSunny.13 mph78%29.74 "Hg10 mi
7:30 PM66 °FSunny.13 mph78%29.74 "Hg10 mi
7:00 PM68 °FPassing clouds.13 mph73%29.71 "HgN/A
6:30 PM68 °FPassing clouds.15 mph73%29.71 "HgN/A
6:00 PM70 °FPassing clouds.15 mph64%29.71 "HgN/A
5:30 PM70 °FPassing clouds.13 mph69%29.71 "HgN/A
5:00 PM72 °FSunny.15 mph61%29.71 "Hg10 mi
4:30 PM72 °FSunny.15 mph61%29.71 "Hg10 mi
4:00 PM72 °FPassing clouds.17 mph57%29.71 "HgN/A
3:30 PM72 °FPassing clouds.17 mph61%29.71 "HgN/A
3:00 PM72 °FBroken clouds.15 mph69%29.71 "HgN/A
2:30 PM73 °FBroken clouds.13 mph65%29.71 "HgN/A
2:00 PM73 °FBroken clouds.10 mph65%29.71 "HgN/A
1:30 PM73 °FBroken clouds.10 mph65%29.71 "HgN/A
1:00 PM75 °FPassing clouds.8 mph54%29.71 "HgN/A
12:30 PM73 °FPassing clouds.10 mph61%29.71 "HgN/A
12:00 PM75 °FSunny.10 mph50%29.71 "Hg10 mi
11:30 AM77 °FPassing clouds.10 mph42%29.71 "HgN/A
11:00 AM79 °FSunny.15 mph30%29.68 "Hg10 mi
Weather by CustomWeather, © 2016

See weather overviewHow to use our weather pages